Tracking 19489 objects as of 22-Jan-2019
HD Live streaming from Space Station
objects crossing your sky now

EQUATOR S

Track EQUATOR S now!
EQUATOR S is classified as:


NORAD ID: 25068
Int'l Code: 1997-075B
Perigee: 713.1 km
Apogee: 66,934.0 km
Inclination: 6.7 °
Period: 1,336.6 minutes
Semi major axis: 40194 km
RCS: 1.1159 m2 (large)
Launch date: December 2, 1997
Source: Germany (GER)
Launch site: FRENCH GUIANA (FRGUI)
aabbcc
Your satellite tracking list
Your tracking list is empty




NASA's NSSDC Master Catalog

Two Line Element Set (TLE):
1 25068U 97075B   19016.22004541 -.00000038  00000-0 -10094-2 0  9993
2 25068   6.6806 329.5517 8237546 211.7265  49.4192  1.07733910 83236
Source of the keplerian elements: AFSPC